Simultaneous Nadir Overpasses (SNOs) Predictions

Prediction of SNOs between AQUA and METOP-A Satellite Orbit:

Table of predicted SNOs for the next 14.0 days since TLE Epoch: 5/15/2015
Index Date (AQUA) Time (AQUA) Lat,Lon (AQUA) SZA (AQUA ) Date (METOP-A) Time (METOP-A) Lat,Lon (METOP-A) SZA (METOP-A ) Distance(km) Time Diff (sec)
1 05/17/2015 10:04:10 73.86, 23.37 54.53 05/17/2015 10:03:13 73.87, 23.35 54.55 1.54 57
2 05/17/2015 10:53:37 -73.92,-169.13 125.41 05/17/2015 10:53:53 -73.95,-169.13 125.39 2.96 16
3 05/17/2015 11:43:15 74.48, -2.79 55.18 05/17/2015 11:44:22 74.49, -0.44 55.12 69.91 67
4 05/20/2015 05:38:17 73.85, 89.84 53.91 05/20/2015 05:37:33 73.86, 89.74 53.93 3.53 44
5 05/20/2015 06:27:45 -73.96,-102.77 125.98 05/20/2015 06:28:13 -73.94,-102.74 126.00 2.54 28
6 05/23/2015 01:12:25 73.91, 156.18 53.40 05/23/2015 01:11:53 73.89, 156.22 53.39 1.91 32
7 05/23/2015 02:01:52 -73.97, -36.31 126.54 05/23/2015 02:02:33 -73.98, -36.25 126.54 2.08 41
8 05/25/2015 19:56:53 -73.35, 56.21 127.70 05/25/2015 19:55:45 -73.32, 53.98 127.65 71.15 68
9 05/25/2015 20:46:31 73.92,-137.38 52.90 05/25/2015 20:46:13 73.91,-137.32 52.89 2.27 18
10 05/25/2015 21:35:58 -73.98, 30.13 127.05 05/25/2015 21:36:53 -74.00, 30.21 127.04 2.87 55
11 05/28/2015 15:31:06 -73.85, 121.63 127.65 05/28/2015 15:29:54 -73.83, 121.56 127.66 2.93 72
12 05/28/2015 16:20:34 73.90, -70.85 52.40 05/28/2015 16:20:32 73.92, -70.90 52.42 2.34 2




NCC Satellite Simultaneous Nadir Overpasses (SNOs) Prediction Service
